Location: Gammelsbach
(49.5261°N, 8.9630°E)
Time: 19:54:26
(UTC+00:00)

IRIDIUM 106 - Pass Details

Date: 17 June 2025
Orbit: 776 x 779 km, 86.4° (Epoch: 16 July)

Event Time Altitude Azimuth Distance (km) Brightness Sun altitude
Exits shadow 21:51:28 19° 180° (S) 1,792 5.7 -14.1°
Maximum altitude 21:55:18 86° 92° (E) 788 4.3 -14.4°
Drops below altitude 10° 22:00:33 10° 5° (N) 2,343 7.9 -14.7°
Sets 22:02:55 0° 5° (N) 3,275 8.8 -14.8°
